Shelbyville, IN

9:01 AM EDT on March 27, 2017 (GMT -0400)
Shelbyville Municipal

Weather History for KGEZ - July, 2013

Change the Weather History Date:

Saturday, July 20, 2013

  Actual Average Record
Temperature  
Mean Temperature 78 °F 74 °F  
Max Temperature 87 °F 84 °F 97 °F (2011)
Min Temperature 69 °F 64 °F 53 °F (2007)
Degree Days  
Heating Degree Days 0 0  
Month to date heating degree days 0 0  
Since 1 June heating degree days 5 15  
Since 1 July heating degree days 0 0  
Cooling Degree Days 13 9  
Month to date cooling degree days 236 180  
Year to date cooling degree days 670 470  
Since 1 June cooling degree days 502 389  
Growing Degree Days 28 (Base 50)    
Moisture  
Dew Point 69 °F    
Average Humidity 78    
Maximum Humidity 90    
Minimum Humidity 65    
Precipitation  
Precipitation 0.02 in 0.16 in 1.21 in (1999)
Month to date precipitation 0.89 3.10  
Year to date precipitation 17.68 25.28  
Sea Level Pressure  
Sea Level Pressure 29.88 in    
Wind  
Wind Speed 6 mph (SW)    
Max Wind Speed 18 mph    
Max Gust Speed 23 mph    
Visibility 9 miles    
Events Rain , Thunderstorm    
T = Trace of Precipitation, MM = Missing Value Source: NWS Daily Summary

Daily Weather History Graph

Daily Weather History Graph

Search for Another Location

Airport or City:

Trip Planner

Search our weather history database for the weather conditions in past years. The results will help you decide how hot, cold, wet, or windy it might be!

Date:

Astronomy

Jul. 20, 2013 Rise Set
Actual Time 6:32 AM EDT 9:06 PM EDT
Civil Twilight 6:01 AM EDT 9:37 PM EDT
Nautical Twilight 5:22 AM EDT 10:16 PM EDT
Astronomical Twilight 4:38 AM EDT 10:59 PM EDT
Moon 7:09 PM EDT (7/20) 4:11 AM EDT (7/20)
Length of Visible Light 15h 36m
Length of Day
14h 34m
Waxing Gibbous, 93% of the Moon is Illuminated
Jul 20
Waxing Gibbous
Jul 22
Full
Jul 29
Last Quarter
Aug 6
New
Aug 14
First Quarter

Hourly Weather History & Observations

Time (EDT) Temp. Heat Index Dew Point Humidity Pressure Visibility Wind Dir Wind Speed Gust Speed Precip Events Conditions
12:53 AM 78.1 °F - 72.0 °F 81% 29.89 in 10.0 mi SSW 6.9 mph - N/A   Clear
1:53 AM 77.0 °F - 71.1 °F 82% 29.88 in 10.0 mi South 6.9 mph - N/A   Clear
2:53 AM 77.0 °F - 71.1 °F 82% 29.87 in 10.0 mi South 9.2 mph - N/A   Clear
3:53 AM 75.0 °F - 70.0 °F 84% 29.85 in 9.0 mi South 6.9 mph - N/A   Clear
4:53 AM 73.9 °F - 70.0 °F 87% 29.84 in 8.0 mi SSW 6.9 mph - N/A   Clear
5:53 AM 73.9 °F - 70.0 °F 87% 29.84 in 8.0 mi SSW 5.8 mph - N/A   Clear
6:53 AM 73.9 °F - 70.0 °F 87% 29.85 in 7.0 mi South 6.9 mph - N/A   Clear
7:53 AM 75.9 °F - 71.1 °F 85% 29.86 in 9.0 mi SSW 6.9 mph - N/A   Clear
8:53 AM 80.1 °F 83.8 °F 72.0 °F 76% 29.86 in 10.0 mi SW 10.4 mph - N/A   Clear
9:53 AM 84.0 °F 89.6 °F 72.0 °F 67% 29.88 in 10.0 mi West 12.7 mph 17.3 mph N/A   Clear
10:38 AM 84.2 °F 89.6 °F 71.6 °F 66% 29.91 in 10.0 mi WSW 11.5 mph 20.7 mph N/A   Overcast
10:53 AM 82.9 °F 87.5 °F 71.1 °F 67% 29.88 in 10.0 mi West 8.1 mph - N/A   Overcast
11:34 AM 84.2 °F 90.9 °F 73.4 °F 70% 29.91 in 10.0 mi West 6.9 mph - N/A   Overcast
11:42 AM 84.2 °F 89.6 °F 71.6 °F 66% 29.91 in 10.0 mi West 9.2 mph - N/A   Overcast
11:53 AM 84.9 °F 91.4 °F 73.0 °F 67% 29.88 in 10.0 mi WSW 10.4 mph - N/A   Mostly Cloudy
12:04 PM 84.2 °F 90.9 °F 73.4 °F 70% 29.90 in 10.0 mi SW 9.2 mph - N/A   Scattered Clouds
12:53 PM 84.9 °F 91.4 °F 73.0 °F 67% 29.86 in 9.0 mi SSW 12.7 mph - N/A   Mostly Cloudy
1:02 PM 84.2 °F 89.6 °F 71.6 °F 66% 29.90 in 9.0 mi West 9.2 mph - N/A Thunderstorm Mostly Cloudy
1:28 PM 78.8 °F - 68.0 °F 69% 29.91 in 10.0 mi WSW 15.0 mph 23.0 mph 0.00 in Rain Light Rain
1:53 PM 73.9 °F - 64.9 °F 73% 29.88 in 10.0 mi WNW 10.4 mph - 0.00 in Rain Light Rain
2:04 PM 73.4 °F - 64.4 °F 73% 29.91 in 10.0 mi NW 8.1 mph - 0.00 in Rain , Thunderstorm Light Rain
2:53 PM 71.1 °F - 66.0 °F 84% 29.90 in 9.0 mi SSW 4.6 mph - 0.00 in Rain , Thunderstorm Light Rain
3:38 PM 71.6 °F - 64.4 °F 78% 29.88 in 10.0 mi SW 8.1 mph - 0.02 in Rain , Thunderstorm Light Rain
3:53 PM 71.1 °F - 66.0 °F 84% 29.85 in 4.0 mi SW 8.1 mph - 0.02 in Thunderstorm Haze
4:06 PM 71.6 °F - 66.2 °F 83% 29.87 in 10.0 mi WSW 6.9 mph - 0.00 in Rain Light Rain
4:53 PM 71.1 °F - 66.9 °F 87% 29.87 in 10.0 mi Calm Calm - 0.00 in   Clear
5:53 PM 71.1 °F - 68.0 °F 90% 29.88 in 10.0 mi SSW 3.5 mph - N/A   Clear
6:53 PM 72.0 °F - 68.0 °F 87% 29.87 in 9.0 mi Calm Calm - 0.00 in Rain Light Rain
7:53 PM 72.0 °F - 69.1 °F 91% 29.88 in 10.0 mi South 3.5 mph - 0.00 in   Clear
8:53 PM 72.0 °F - 68.0 °F 87% 29.88 in 10.0 mi Calm Calm - N/A   Partly Cloudy
9:53 PM 71.1 °F - 68.0 °F 90% 29.90 in 10.0 mi Calm Calm - N/A   Clear
10:53 PM 71.1 °F - 66.9 °F 87% 29.90 in 8.0 mi NNW 3.5 mph - N/A   Unknown
11:53 PM 70.0 °F - 66.9 °F 90% 29.91 in 7.0 mi Calm Calm - N/A   Clear